Location: Jaite
(41.2884°N, 81.5737°W)
Time: 12:31:56
(UTC+00:00)

Cosmos 489 Rocket - Pass Details

Date: 15 November 2025
Orbit: 952 x 982 km, 74.0° (Epoch: 11 December)

Event Time Altitude Azimuth Distance (km) Brightness Sun altitude
Rises 00:25:54 0° 341° (NNW) 3,664 7.7 -26.0°
Reaches altitude 10° 00:28:27 10° 343° (NNW) 2,709 7.0 -26.5°
Maximum altitude 00:34:43 76° 69° (ENE) 990 4.3 -27.7°
Enters shadow 00:34:50 76° 80° (E) 991 4.3 -27.7°
